Regional Weather Roundup
Issued by NWS State College, PA

Home | Current Version | Previous Version | Graphics & Text | Print | Product List | Glossary On
Versions: 1 2 3 4 5 6 7 8 9 10 11 12 13 14 15 16 17 18 19 20 21 22 23 24 25 26 27 28 29 30 31 32 33 34 35 36 37 38 39 40 41 42 43 44 45 46 47 48 49 50
000
ASUS41 KCTP 060510
RWRCTP

REGIONAL WEATHER ROUNDUP
NATIONAL WEATHER SERVICE STATE COLLEGE PA
100 AM EDT MON JUL 06 2015

Note: "fair" indicates few or no clouds below 12,000 feet with no
significant weather and/or obstructions to visibility.

* = STATION THAT DOES NOT REPORT PRECIPITATION /E.G. RAIN...SNOW...ETC/
    THUNDER OR FOG.

PAZ002>004-007>009-013>016-020>023-029>032-060600-
WESTERN PENNSYLVANIA

CITY           SKY/WX    TMP DP  RH WIND       PRES   REMARKS
ERIE           MOCLDY    69  60  73 SE7       30.09F
MEADVILLE      MOCLDY    68  57  68 VRB3      30.11F
FRANKLIN*      MOCLDY    64  55  72 E6        30.14F
NEW CASTLE     FAIR      64  62  93 CALM      30.10F
BEAVER COUNTY  NOT AVBL
BUTLER*        CLOUDY    68  63  83 SE7       30.12F
PITTSBURGH INT CLOUDY    73  63  70 SE7       30.09F
PITTSBURGH     CLOUDY    72  62  71 SE6       30.09F
INDIANA*       CLOUDY    72  66  83 E3        30.16S
LATROBE        NOT AVBL
WASHINGTON CO* NOT AVBL
$$

PAZ004>006-010>012-017>019-024>028-033>037-041-042-045-046-049>053-060600-
CENTRAL PENNSYLVANIA

CITY           SKY/WX    TMP DP  RH WIND       PRES   REMARKS
BRADFORD       MOCLDY    57  56  96 SE3       30.18F
DUBOIS         CLOUDY    65  59  81 E8        30.15F
CLEARFIELD     CLOUDY    62  59  90 N6        30.17S
JOHNSTOWN      CLOUDY    68  63  84 SE5       30.17F
ALTOONA        CLOUDY    69  65  86 CALM      30.16F
STATE COLLEGE  CLOUDY    65  62  90 CALM      30.17R
WILLIAMSPORT   MOCLDY    63  60  90 CALM      30.15S
SELINSGROVE    NOT AVBL
FT INDIANTOWN  CLOUDY    65  64  97 CALM      30.15S
CAPITAL CITY   CLOUDY    72  66  81 E3        30.13S
HARRISBURG     CLOUDY    70  67  90 CALM      30.13S
YORK           CLOUDY    71  66  84 SE5       30.14S
$$

PAZ038>040-043-044-047-048-054-055-060>062-067>071-060600-
EASTERN PENNSYLVANIA

CITY           SKY/WX    TMP DP  RH WIND       PRES   REMARKS
SCRANTON       MOCLDY    65  57  75 E6        30.17S
MOUNT POCONO   MOCLDY    59  56  89 CALM      30.21S
ALLENTOWN      CLOUDY    67  64  90 NW3       30.16R
QUAKERTOWN*    CLOUDY    66  64  94 CALM      30.17S
READING        CLOUDY    69  65  86 N3        30.14S
LANCASTER      CLOUDY    67  66  97 SE3       30.14F FOG
COATESVILLE    CLOUDY    68  68 100 CALM      30.17S
POTTSTOWN      CLOUDY    70  67  90 CALM      30.17S
BLUE BELL      CLOUDY    72  68  88 CALM      30.15S
DOYLESTOWN     CLOUDY    67  65  93 CALM      30.15S
WILLOW GROVE   NOT AVBL
NORTH PHILA    CLOUDY    75  65  70 VRB3      30.16S
PHILADELPHIA   CLOUDY    73  67  81 S6        30.15F
$$


USA.gov is the U.S. government's official web portal to all federal, state and local government web resources and services.